Location: Sweet Grass
(48.9965°N, 111.9649°W)
Time: 18:34:34
(UTC+00:00)

DX 1 - Pass Details

Date: 08 April 2023
Orbit: 615 x 625 km, 98.4° (Epoch: 04 June)

Event Time Altitude Azimuth Distance (km) Brightness Sun altitude
Rises 07:18:51 0° 1° (N) 2,900 ? -33.8°
Reaches altitude 10° 07:21:37 10° 343° (NNW) 1,990 ? -33.8°
Enters shadow 07:23:32 17° 317° (NW) 1,596 ? -33.8°
